Weather History for St. Joseph, MO

Change the Weather History Date:

Tuesday, April 23, 2013

  Actual Average Record
Temperature  
Mean Temperature 37 °F 56 °F  
Max Temperature 41 °F 68 °F 92 °F (1950)
Min Temperature 32 °F 45 °F 30 °F (1996)
Degree Days  
Heating Degree Days 28 9  
Month to date heating degree days 410 288  
Since 1 July heating degree days 5363 5281  
Cooling Degree Days 0 1  
Month to date cooling degree days 0 16  
Year to date cooling degree days 0 18  
Moisture  
Dew Point 30 °F    
Average Humidity 78    
Maximum Humidity 92    
Minimum Humidity 64    
Precipitation  
Precipitation 0.29 in 0.15 in 1.31 in (1968)
Month to date precipitation 3.42 2.61  
Year to date precipitation 6.51 6.35  
Sea Level Pressure  
Sea Level Pressure 30.14 in    
Wind  
Wind Speed 15 mph (North)    
Max Wind Speed 25 mph    
Max Gust Speed 32 mph    
Visibility 6 miles    
Events Fog , Rain , Snow    
T = Trace of Precipitation, MM = Missing Value Source: NWS Daily Summary

Daily Weather History Graph

Daily Weather History Graph

Search for Another Location

Airport:

Trip Planner

Search our weather history database for the weather conditions in past years. The results will help you decide how hot, cold, wet, or windy it might be!

Date:

Astronomy

Apr. 23, 2013 Rise Set
Actual Time 6:30 AM CDT 8:06 PM CDT
Civil Twilight 6:01 AM CDT 8:34 PM CDT
Nautical Twilight 5:27 AM CDT 9:09 PM CDT
Astronomical Twilight 4:50 AM CDT 9:46 PM CDT
Moon 6:02 PM CDT (4/23) 4:58 AM CDT (4/23)
Length of Visible Light 14h 33m
Length of Day
13h 35m
Waxing Gibbous, 94% of the Moon is Illuminated
Apr 23
Waxing Gibbous
Apr 25
Full
May 2
Last Quarter
May 9
New
May 17
First Quarter

Hourly Weather History & Observations

Time (CDT) Temp. Windchill Dew Point Humidity Pressure Visibility Wind Dir Wind Speed Gust Speed Precip Events Conditions
12:53 AM 39.0 °F 28.5 °F 35.1 °F 86% 30.14 in 8.0 mi NNW 23.0 mph 33.4 mph N/A   Overcast
1:53 AM 37.9 °F 28.9 °F 34.0 °F 86% 30.11 in 10.0 mi North 16.1 mph 26.5 mph N/A   Overcast
2:53 AM 37.0 °F 26.2 °F 33.1 °F 86% 30.12 in 9.0 mi North 21.9 mph - 0.03 in Rain Light Rain
3:53 AM 35.1 °F 23.3 °F 32.0 °F 89% 30.11 in 9.0 mi North 23.0 mph 28.8 mph 0.01 in   Overcast
5:18 AM 35.6 °F 24.2 °F 30.2 °F 81% 30.10 in 9.0 mi North 21.9 mph 26.5 mph 0.02 in Rain Light Rain
5:48 AM 35.6 °F 25.2 °F 30.2 °F 81% 30.10 in 10.0 mi North 18.4 mph 24.2 mph 0.05 in Rain Light Rain
5:53 AM 35.1 °F 24.5 °F 30.9 °F 85% 30.11 in 10.0 mi North 18.4 mph 24.2 mph 0.05 in   Overcast
6:53 AM 34.0 °F 23.0 °F 30.9 °F 89% 30.10 in 10.0 mi North 18.4 mph 24.2 mph 0.00 in   Overcast
7:53 AM 33.1 °F 20.9 °F 30.0 °F 89% 30.14 in 1.5 mi North 21.9 mph 27.6 mph 0.02 in Snow Light Snow
8:06 AM 33.8 °F 24.3 °F 30.2 °F 87% 30.14 in 0.5 mi North 13.8 mph - 0.02 in Fog , Snow Snow
8:32 AM 32.0 °F 20.8 °F 30.2 °F 93% 30.14 in 0.2 mi North 17.3 mph - 0.06 in Fog , Snow Snow
8:48 AM 32.0 °F 22.1 °F 30.2 °F 93% 30.16 in 0.5 mi North 13.8 mph 24.2 mph 0.07 in Fog , Snow Light Snow
8:53 AM 32.0 °F 21.6 °F 30.0 °F 92% 30.17 in 0.8 mi North 15.0 mph - 0.08 in Snow Light Snow
9:09 AM 32.0 °F 22.1 °F 30.2 °F 93% 30.13 in 1.0 mi North 13.8 mph - 0.01 in Snow Light Snow
9:21 AM 32.0 °F 22.1 °F 30.2 °F 93% 30.13 in 3.0 mi North 13.8 mph - 0.02 in   Overcast
9:38 AM 32.0 °F 22.5 °F 30.2 °F 93% 30.12 in 4.0 mi North 12.7 mph - 0.04 in Snow Light Snow
9:53 AM 33.1 °F 22.2 °F 28.9 °F 85% 30.15 in 7.0 mi North 17.3 mph - 0.04 in   Overcast
10:20 AM 33.8 °F 22.8 °F 28.4 °F 81% 30.14 in 1.8 mi North 18.4 mph - 0.01 in Snow Light Snow
10:32 AM 33.8 °F 23.2 °F 30.2 °F 87% 30.14 in 0.8 mi North 17.3 mph - 0.01 in Snow Light Snow
10:37 AM 33.8 °F 23.9 °F 30.2 °F 87% 30.14 in 0.5 mi North 15.0 mph - 0.01 in Fog , Snow Snow
10:45 AM 32.0 °F 20.8 °F 30.2 °F 93% 30.14 in 0.8 mi North 17.3 mph - 0.02 in Snow Light Snow
10:53 AM 32.0 °F 20.5 °F 30.0 °F 92% 30.16 in 1.0 mi North 18.4 mph - 0.02 in Snow Light Snow
10:55 AM 32.0 °F 21.2 °F 30.2 °F 93% 30.14 in 1.0 mi North 16.1 mph - 0.00 in Snow Light Snow
11:04 AM 33.8 °F 24.3 °F 30.2 °F 87% 30.14 in 1.5 mi North 13.8 mph - 0.00 in Snow Light Snow
11:16 AM 33.8 °F 24.8 °F 30.2 °F 87% 30.15 in 2.5 mi North 12.7 mph 21.9 mph 0.00 in Snow Light Snow
11:20 AM 33.8 °F 23.9 °F 30.2 °F 87% 30.15 in 5.0 mi North 15.0 mph - 0.00 in Snow Light Snow
11:29 AM 33.8 °F 23.2 °F 30.2 °F 87% 30.15 in 8.0 mi North 17.3 mph - 0.00 in   Overcast
11:53 AM 33.1 °F 21.9 °F 28.9 °F 85% 30.17 in 2.5 mi North 18.4 mph 25.3 mph 0.00 in Snow Light Snow
12:03 PM 33.8 °F 23.2 °F 30.2 °F 87% 30.15 in 1.5 mi NNW 17.3 mph 24.2 mph 0.00 in Snow Light Snow
12:12 PM 33.8 °F 23.2 °F 30.2 °F 87% 30.15 in 3.0 mi North 17.3 mph - 0.00 in Snow Light Snow
12:32 PM 33.8 °F 23.2 °F 28.4 °F 81% 30.15 in 2.5 mi North 17.3 mph - 0.00 in Snow Light Snow
12:38 PM 33.8 °F 23.2 °F 30.2 °F 87% 30.14 in 4.0 mi North 17.3 mph - 0.00 in Snow Light Snow
12:53 PM 34.0 °F 23.4 °F 30.0 °F 85% 30.17 in 6.0 mi North 17.3 mph - 0.00 in   Overcast
1:11 PM 33.8 °F 22.8 °F 30.2 °F 87% 30.14 in 7.0 mi NNW 18.4 mph - N/A   Overcast
1:53 PM 34.0 °F 23.4 °F 30.0 °F 85% 30.16 in 6.0 mi North 17.3 mph - 0.00 in   Overcast
2:53 PM 36.0 °F 27.1 °F 30.9 °F 82% 30.16 in 9.0 mi NNW 13.8 mph - 0.00 in   Overcast
3:00 PM 35.6 °F 26.2 °F 30.2 °F 81% 30.14 in 10.0 mi NNW 15.0 mph - N/A   Overcast
3:10 PM 35.6 °F 26.6 °F 32.0 °F 87% 30.14 in 9.0 mi North 13.8 mph - N/A   Overcast
3:53 PM 37.0 °F 28.5 °F 32.0 °F 82% 30.14 in 10.0 mi North 13.8 mph - N/A   Overcast
4:03 PM 37.4 °F 28.9 °F 33.8 °F 87% 30.12 in 10.0 mi NNW 13.8 mph - N/A   Overcast
4:20 PM 39.2 °F 31.2 °F 33.8 °F 81% 30.11 in 10.0 mi North 13.8 mph - N/A   Overcast
4:37 PM 39.2 °F 32.0 °F 32.0 °F 75% 30.11 in 10.0 mi North 11.5 mph - N/A   Overcast
4:53 PM 39.9 °F 33.4 °F 32.0 °F 73% 30.13 in 10.0 mi NNW 10.4 mph - N/A   Overcast
5:53 PM 41.0 °F 34.7 °F 30.0 °F 65% 30.12 in 10.0 mi North 10.4 mph - N/A   Overcast
6:53 PM 41.0 °F 33.1 °F 30.9 °F 67% 30.12 in 10.0 mi NNW 15.0 mph - N/A   Overcast
7:53 PM 39.9 °F 32.1 °F 28.9 °F 65% 30.14 in 10.0 mi NNW 13.8 mph - N/A   Overcast
8:53 PM 39.0 °F 32.8 °F 28.9 °F 67% 30.17 in 10.0 mi NW 9.2 mph - N/A   Overcast
9:53 PM 37.9 °F 30.9 °F 28.9 °F 70% 30.19 in 10.0 mi NNW 10.4 mph - N/A   Overcast
10:53 PM 37.0 °F 29.8 °F 28.0 °F 70% 30.20 in 10.0 mi NNW 10.4 mph - N/A   Overcast
11:53 PM 37.0 °F 29.3 °F 27.0 °F 67% 30.21 in 10.0 mi NNW 11.5 mph - N/A   Overcast